Hourly Data Report for September 12, 2020

OTTAWA INTL A
ONTARIO
Current Station Operator: NAVCAN

45°19'00.000" N
75°40'00.000" W
114.90 m
6106001
71628
YOW

Download Data

Hourly Data (September 2020)
Hourly Data Report for September 12, 2020
TIME Temp Definition
°C
Dew Point Definition
°C
Rel Hum Definition
%
Wind Dir Definition
10's deg

Wind Spd Definition
km/h
Visibility Definition
km
Stn Press Definition
kPa
Hmdx Definition


Wind Chill Definition


Weather Definition


00:00 7.9 6.9 93 20 6 24.1 101.36     LegendNANA
01:00 5.6 5.1 97 19 8 24.1 101.39     Mainly Clear
02:00 5.0 4.2 95 36 1 24.1 101.32     LegendNANA
03:00 5.2 4.1 92 36 6 24.1 101.33     LegendNANA
04:00 5.3 4.7 96 10 9 24.1 101.33     Mainly Clear
05:00 5.4 5.0 98 12 5 0.2 101.35     Fog
06:00 4.7 4.5 98 5 12 24.1 101.37     LegendNANA
07:00 7.2 7.0 98 7 9 24.1 101.37     Mainly Clear
08:00 9.7 8.7 93 7 9 24.1 101.36     LegendNANA
09:00 13.3 8.3 72 10 10 24.1 101.36     LegendNANA
10:00 15.7 8.4 62 10 20 24.1 101.29     Clear
11:00 17.0 8.8 58 12 16 24.1 101.19     LegendNANA
12:00 17.9 9.9 59 13 8 24.1 101.13     LegendNANA
13:00 18.9 9.2 53 12 13 24.1 101.02     Mainly Clear
14:00 19.8 9.6 51 14 13 24.1 100.94     LegendNANA
15:00 20.3 10.7 54 13 18 24.1 100.86     LegendNANA
16:00 19.9 12.3 61 12 11 24.1 100.77     Mostly Cloudy
17:00 18.7 13.1 69 11 10 24.1 100.72     LegendNANA
18:00 16.5 12.2 75 10 11 24.1 100.66     LegendNANA
19:00 15.2 11.5 78 10 10 24.1 100.63     Mostly Cloudy
20:00 14.3 10.3 76 11 13 24.1 100.64     LegendNANA
21:00 14.7 10.1 74 10 14 24.1 100.52     LegendNANA
22:00 14.4 10.6 77 10 13 24.1 100.50     Cloudy
23:00 14.1 11.2 83 12 9 24.1 100.43     LegendNANA

Notes on Data Quality.

Legend

  • E = Estimated
  • M = Missing
  • NA = Not Available*
  • [empty] = Indicates an unobserved value
Date modified: